| time (UTC) | temp C | wind direction | speed KPH | gust KPH | rain 1hr cm | rain 24hr cm | rain mn cm | humidity % | barometer mb |
| 20260906053033 | 25 | 315 | 8.0 | 11.3 | 0.00 | 0.00 | 0.00 | 41 | |
| 20260906052034 | 26 | 316 | 9.7 | 11.3 | 0.00 | 0.00 | 0.00 | 40 | |
| 20260906051054 | 26 | 315 | 9.7 | 11.3 | 0.00 | 0.00 | 0.00 | 40 | |
| 20260906050034 | 25 | 315 | 9.7 | 11.3 | 0.00 | 0.00 | 0.00 | 40 | |
| 20260906045034 | 25 | 323 | 8.0 | 8.0 | 0.00 | 0.00 | 0.00 | 40 | |
| 20260906044034 | 25 | 312 | 6.4 | 8.0 | 0.00 | 0.00 | 0.00 | 42 | |
| 20260906043034 | 25 | 303 | 6.4 | 8.0 | 0.00 | 0.00 | 0.00 | 42 | |
| 20260906042034 | 25 | 299 | 6.4 | 8.0 | 0.00 | 0.00 | 0.00 | 42 | |
| 20260906041034 | 25 | 294 | 6.4 | 8.0 | 0.00 | 0.00 | 0.00 | 43 | |
| 20260906040034 | 25 | 302 | 6.4 | 9.7 | 0.00 | 0.00 | 0.00 | 44 | |
| 20260906035034 | 25 | 301 | 6.4 | 11.3 | 0.00 | 0.00 | 0.00 | 44 | |
| 20260906034034 | 25 | 289 | 4.8 | 9.7 | 0.00 | 0.00 | 0.00 | 45 | |
| 20260906033033 | 25 | 292 | 4.8 | 8.0 | 0.00 | 0.00 | 0.00 | 46 | |
| 20260906032034 | 25 | 295 | 4.8 | 8.0 | 0.00 | 0.00 | 0.00 | 47 | |
| 20260906031034 | 25 | 275 | 4.8 | 11.3 | 0.00 | 0.00 | 0.00 | 47 | |
| 20260906030034 | 25 | 278 | 4.8 | 9.7 | 0.00 | 0.00 | 0.00 | 47 | |
| 20260906025034 | 25 | 273 | 4.8 | 8.0 | 0.00 | 0.00 | 0.00 | 48 | |
| 20260906024054 | 25 | 290 | 4.8 | 9.7 | 0.00 | 0.00 | 0.00 | 48 | |
| 20260906023033 | 25 | 278 | 4.8 | 9.7 | 0.00 | 0.00 | 0.00 | 48 | |
| 20260906022033 | 25 | 269 | 4.8 | 11.3 | 0.00 | 0.00 | 0.00 | 48 | |
| 20260906021034 | 25 | 257 | 6.4 | 11.3 | 0.00 | 0.00 | 0.00 | 49 | |
| 20260906020034 | 25 | 270 | 4.8 | 9.7 | 0.00 | 0.00 | 0.00 | 49 | |
| 20260906015033 | 25 | 260 | 4.8 | 11.3 | 0.00 | 0.00 | 0.00 | 49 | |
| 20260906014034 | 25 | 248 | 6.4 | 9.7 | 0.00 | 0.00 | 0.00 | 49 | |
| 20260906013034 | 25 | 255 | 4.8 | 8.0 | 0.00 | 0.00 | 0.00 | 50 | |
| 20260906012033 | 25 | 248 | 6.4 | 11.3 | 0.00 | 0.00 | 0.00 | 50 | |
| 20260906011034 | 25 | 248 | 6.4 | 11.3 | 0.00 | 0.00 | 0.00 | 50 | |
| 20260906010034 | 25 | 249 | 8.0 | 11.3 | 0.00 | 0.00 | 0.00 | 50 | |
| 20260906005034 | 25 | 250 | 6.4 | 11.3 | 0.00 | 0.00 | 0.00 | 49 | |
| 20260906004054 | 25 | 270 | 6.4 | 11.3 | 0.00 | 0.00 | 0.00 | 49 | |
| 20260906003034 | 25 | 266 | 6.4 | 11.3 | 0.00 | 0.00 | 0.00 | 50 | |
| 20260906002034 | 25 | 268 | 4.8 | 9.7 | 0.00 | 0.00 | 0.00 | 50 | |
| 20260906001034 | 25 | 256 | 4.8 | 11.3 | 0.00 | 0.00 | 0.00 | 50 | |
| 20260906000033 | 25 | 255 | 6.4 | 11.3 | 0.00 | 0.00 | 0.00 | 50 | |
| 20260905235034 | 25 | 255 | 8.0 | 11.3 | 0.00 | 0.00 | 0.00 | 50 | |
| 20260905234034 | 25 | 247 | 6.4 | 9.7 | 0.00 | 0.00 | 0.00 | 50 | |
| 20260905233034 | 26 | 239 | 6.4 | 8.0 | 0.00 | 0.00 | 0.00 | 49 | |
| 20260905232034 | 26 | 240 | 6.4 | 8.0 | 0.00 | 0.00 | 0.00 | 47 | |
| 20260905231034 | 26 | 237 | 4.8 | 9.7 | 0.00 | 0.00 | 0.00 | 46 | |
| 20260905230034 | 27 | 234 | 6.4 | 8.0 | 0.00 | 0.00 | 0.00 | 46 | |
| 20260905225054 | 26 | 216 | 8.0 | 11.3 | 0.00 | 0.00 | 0.00 | 42 | |
| 20260905224034 | 26 | 209 | 9.7 | 11.3 | 0.00 | 0.00 | 0.00 | 39 | |
| 20260905223034 | 26 | 205 | 9.7 | 11.3 | 0.00 | 0.00 | 0.00 | 37 | |
| 20260905222054 | 26 | 202 | 9.7 | 12.9 | 0.00 | 0.00 | 0.00 | 37 | |
| 20260905221034 | 26 | 202 | 8.0 | 11.3 | 0.00 | 0.00 | 0.00 | 38 | |
| 20260905220034 | 26 | 196 | 6.4 | 11.3 | 0.00 | 0.00 | 0.00 | 38 | |
| 20260905215034 | 26 | 204 | 8.0 | 11.3 | 0.00 | 0.00 | 0.00 | 39 | |
| 20260905214033 | 26 | 188 | 6.4 | 9.7 | 0.00 | 0.00 | 0.00 | 40 | |
| 20260905213034 | 26 | 206 | 8.0 | 11.3 | 0.00 | 0.00 | 0.00 | 43 | |
| 20260905212034 | 26 | 206 | 6.4 | 11.3 | 0.00 | 0.00 | 0.00 | 49 | |
| 20260905211033 | 26 | 191 | 9.7 | 14.5 | 0.00 | 0.00 | 0.00 | 50 | |
| 20260905210034 | 26 | 189 | 9.7 | 16.1 | 0.00 | 0.00 | 0.00 | 48 | |
| 20260905205114 | 26 | 185 | 9.7 | 12.9 | 0.00 | 0.00 | 0.00 | 49 | |
| 20260905204034 | 26 | 178 | 9.7 | 14.5 | 0.00 | 0.00 | 0.00 | 49 | |
| 20260905203034 | 26 | 184 | 9.7 | 14.5 | 0.00 | 0.00 | 0.00 | 50 | |
| 20260905202114 | 26 | 178 | 9.7 | 14.5 | 0.00 | 0.00 | 0.00 | 49 | |
| 20260905201054 | 26 | 178 | 9.7 | 14.5 | 0.00 | 0.00 | 0.00 | 48 | |
| 20260905200033 | 26 | 171 | 9.7 | 16.1 | 0.00 | 0.00 | 0.00 | 48 | |
| 20260905195034 | 26 | 169 | 8.0 | 12.9 | 0.00 | 0.00 | 0.00 | 48 | |
| 20260905194034 | 26 | 167 | 9.7 | 16.1 | 0.00 | 0.00 | 0.00 | 47 | |
| 20260905193034 | 27 | 171 | 9.7 | 12.9 | 0.00 | 0.00 | 0.00 | 47 | |
| 20260905192033 | 27 | 173 | 9.7 | 12.9 | 0.00 | 0.00 | 0.00 | 47 | |
| 20260905191034 | 27 | 158 | 9.7 | 12.9 | 0.00 | 0.00 | 0.00 | 46 | |
| 20260905190034 | 27 | 170 | 9.7 | 14.5 | 0.00 | 0.00 | 0.00 | 46 | |
| 20260905185034 | 27 | 171 | 8.0 | 12.9 | 0.00 | 0.00 | 0.00 | 46 | |
| 20260905184054 | 27 | 175 | 8.0 | 12.9 | 0.00 | 0.00 | 0.00 | 45 | |
| 20260905183034 | 27 | 176 | 9.7 | 14.5 | 0.00 | 0.00 | 0.00 | 44 | |
| 20260905182034 | 27 | 177 | 9.7 | 16.1 | 0.00 | 0.00 | 0.00 | 43 | |
| 20260905181034 | 28 | 189 | 9.7 | 14.5 | 0.00 | 0.00 | 0.00 | 42 | |
| 20260905180034 | 28 | 185 | 9.7 | 14.5 | 0.00 | 0.00 | 0.00 | 42 | |
| 20260905175034 | 28 | 172 | 9.7 | 12.9 | 0.00 | 0.00 | 0.00 | 41 | |
| 20260905174054 | 28 | 175 | 8.0 | 12.9 | 0.00 | 0.00 | 0.00 | 41 | |
| 20260905173034 | 29 | 159 | 9.7 | 12.9 | 0.00 | 0.00 | 0.00 | 41 | |
| 20260905172054 | 30 | 174 | 6.4 | 12.9 | 0.00 | 0.00 | 0.00 | 39 | |
| 20260905171033 | 30 | 160 | 8.0 | 11.3 | 0.00 | 0.00 | 0.00 | 37 | |
| 20260905170034 | 30 | 166 | 8.0 | 14.5 | 0.00 | 0.00 | 0.00 | 35 | |
| 20260905165034 | 31 | 178 | 12.9 | 19.3 | 0.00 | 0.00 | 0.00 | 34 | |
| 20260905164033 | 31 | 144 | 11.3 | 19.3 | 0.00 | 0.00 | 0.00 | 33 | |
| 20260905163034 | 31 | 170 | 12.9 | 20.9 | 0.00 | 0.00 | 0.00 | 30 | |
| 20260905162034 | 32 | 155 | 9.7 | 16.1 | 0.00 | 0.00 | 0.00 | 29 | |
| 20260905161034 | 32 | 175 | 12.9 | 20.9 | 0.00 | 0.00 | 0.00 | 29 | |
| 20260905160033 | 32 | 177 | 14.5 | 19.3 | 0.00 | 0.00 | 0.00 | 28 | |
| 20260905155034 | 32 | 168 | 16.1 | 17.7 | 0.00 | 0.00 | 0.00 | 28 | |
| 20260905154034 | 33 | 172 | 12.9 | 19.3 | 0.00 | 0.00 | 0.00 | 27 | |
| 20260905124534 | 36 | 243 | 3.2 | 8.0 | 0.00 | 0.00 | 0.00 | 22 | |
| 20260905124034 | 35 | 252 | 8.0 | 14.5 | 0.00 | 0.00 | 0.00 | 23 | |
| 20260905111114 | 35 | 31 | 1.6 | 3.2 | 0.00 | 0.00 | 0.00 | 24 | |
| 20260905110533 | 35 | 39 | 3.2 | 8.0 | 0.00 | 0.00 | 0.00 | 24 | |
| 20260905110034 | 34 | 20 | 4.8 | 8.0 | 0.00 | 0.00 | 0.00 | 25 | |
| 20260905105534 | 34 | 100 | 4.8 | 8.0 | 0.00 | 0.00 | 0.00 | 26 | |
| 20260905105034 | 34 | 139 | 6.4 | 11.3 | 0.00 | 0.00 | 0.00 | 25 | |
| 20260905100534 | 35 | 106 | 1.6 | 1.6 | 0.00 | 0.00 | 0.00 | 25 | |
| 20260905100034 | 33 | 124 | 6.4 | 11.3 | 0.00 | 0.00 | 0.00 | 27 | |
| 20260905095534 | 33 | 177 | 6.4 | 11.3 | 0.00 | 0.00 | 0.00 | 27 | |
| 20260905095034 | 33 | 222 | 6.4 | 14.5 | 0.00 | 0.00 | 0.00 | 26 | |
| 20260905094534 | 34 | 344 | 1.6 | 6.4 | 0.00 | 0.00 | 0.00 | 26 | |
| 20260905094034 | 32 | 234 | 6.4 | 16.1 | 0.00 | 0.00 | 0.00 | 28 | |
| 20260905093533 | 33 | 223 | 11.3 | 17.7 | 0.00 | 0.00 | 0.00 | 27 | |
| 20260905093034 | 33 | 336 | 4.8 | 8.0 | 0.00 | 0.00 | 0.00 | 27 | |
| 20260905092534 | 33 | 307 | 4.8 | 8.0 | 0.00 | 0.00 | 0.00 | 27 | |
| 20260905092034 | 33 | 240 | 6.4 | 12.9 | 0.00 | 0.00 | 0.00 | 27 | |
| 20260905091534 | 33 | 267 | 4.8 | 9.7 | 0.00 | 0.00 | 0.00 | 27 | |
| 20260905091033 | 33 | 317 | 3.2 | 8.0 | 0.00 | 0.00 | 0.00 | 26 | |
| 20260905090534 | 33 | 239 | 3.2 | 8.0 | 0.00 | 0.00 | 0.00 | 27 | |
| 20260905090034 | 33 | 56 | 3.2 | 6.4 | 0.00 | 0.00 | 0.00 | 27 | |
| 20260905085533 | 32 | 202 | 4.8 | 12.9 | 0.00 | 0.00 | 0.00 | 28 | |
| 20260905085034 | 32 | 212 | 3.2 | 6.4 | 0.00 | 0.00 | 0.00 | 27 | |
| 20260905084534 | 32 | 202 | 6.4 | 11.3 | 0.00 | 0.00 | 0.00 | 28 | |
| 20260905084033 | 32 | 216 | 4.8 | 11.3 | 0.00 | 0.00 | 0.00 | 28 | |
| 20260905083534 | 32 | 199 | 6.4 | 11.3 | 0.00 | 0.00 | 0.00 | 28 | |
| 20260905083034 | 31 | 236 | 4.8 | 11.3 | 0.00 | 0.00 | 0.00 | 28 | |
| 20260905082534 | 31 | 219 | 8.0 | 14.5 | 0.00 | 0.00 | 0.00 | 29 | |
| 20260905082034 | 31 | 210 | 4.8 | 11.3 | 0.00 | 0.00 | 0.00 | 29 | |
| 20260905081534 | 31 | 209 | 8.0 | 12.9 | 0.00 | 0.00 | 0.00 | 29 | |
| 20260905081034 | 31 | 198 | 6.4 | 11.3 | 0.00 | 0.00 | 0.00 | 29 | |
| 20260905080534 | 31 | 228 | 6.4 | 9.7 | 0.00 | 0.00 | 0.00 | 29 | |
| 20260905080034 | 31 | 239 | 4.8 | 8.0 | 0.00 | 0.00 | 0.00 | 29 | |
| 20260905075533 | 31 | 219 | 6.4 | 8.0 | 0.00 | 0.00 | 0.00 | 29 | |
| 20260905075034 | 31 | 217 | 6.4 | 11.3 | 0.00 | 0.00 | 0.00 | 29 | |
| 20260905074534 | 31 | 206 | 8.0 | 11.3 | 0.00 | 0.00 | 0.00 | 29 | |
| 20260905074033 | 30 | 227 | 6.4 | 9.7 | 0.00 | 0.00 | 0.00 | 30 | |
| 20260905073614 | 30 | 229 | 6.4 | 11.3 | 0.00 | 0.00 | 0.00 | 30 | |
| 20260905073034 | 30 | 238 | 8.0 | 11.3 | 0.00 | 0.00 | 0.00 | 30 | |
| 20260905072534 | 30 | 234 | 6.4 | 9.7 | 0.00 | 0.00 | 0.00 | 30 | |
| 20260905072054 | 30 | 234 | 4.8 | 8.0 | 0.00 | 0.00 | 0.00 | 30 | |
| 20260905071534 | 29 | 223 | 6.4 | 11.3 | 0.00 | 0.00 | 0.00 | 31 | |
| 20260905071034 | 29 | 228 | 8.0 | 11.3 | 0.00 | 0.00 | 0.00 | 32 | |
| 20260905070534 | 28 | 228 | 8.0 | 11.3 | 0.00 | 0.00 | 0.00 | 32 | |
| 20260905070034 | 28 | 216 | 8.0 | 11.3 | 0.00 | 0.00 | 0.00 | 32 | |
| 20260905065534 | 28 | 215 | 6.4 | 9.7 | 0.00 | 0.00 | 0.00 | 32 | |
| 20260905065034 | 28 | 225 | 4.8 | 8.0 | 0.00 | 0.00 | 0.00 | 34 | |
| 20260905064557 | 27 | 223 | 6.4 | 8.0 | 0.00 | 0.00 | 0.00 | 35 | |
| 20260905064053 | 27 | 224 | 4.8 | 8.0 | 0.00 | 0.00 | 0.00 | 37 | |
| 20260905063534 | 27 | 232 | 4.8 | 6.4 | 0.00 | 0.00 | 0.00 | 38 | |
| 20260905063034 | 26 | 223 | 6.4 | 8.0 | 0.00 | 0.00 | 0.00 | 38 | |
| 20260905062554 | 26 | 234 | 4.8 | 6.4 | 0.00 | 0.00 | 0.00 | 39 | |
| 20260905062033 | 26 | 241 | 4.8 | 6.4 | 0.00 | 0.00 | 0.00 | 39 | |
| 20260905061534 | 26 | 241 | 4.8 | 6.4 | 0.00 | 0.00 | 0.00 | 39 | |
| 20260905061034 | 25 | 240 | 6.4 | 8.0 | 0.00 | 0.00 | 0.00 | 40 | |
| 20260905060534 | 25 | 242 | 6.4 | 8.0 | 0.00 | 0.00 | 0.00 | 39 | |
| 20260905060034 | 25 | 241 | 6.4 | 8.0 | 0.00 | 0.00 | 0.00 | 39 | |
| 20260905055554 | 24 | 236 | 6.4 | 8.0 | 0.00 | 0.00 | 0.00 | 40 | |
| 20260905055035 | 24 | 233 | 6.4 | 8.0 | 0.00 | 0.00 | 0.00 | 40 | |
| 20260905054534 | 24 | 237 | 6.4 | 9.7 | 0.00 | 0.00 | 0.00 | 40 | |
| 20260905054034 | 24 | 236 | 4.8 | 8.0 | 0.00 | 0.00 | 0.00 | 39 | |
| 20260905053534 | 24 | 239 | 4.8 | 6.4 | 0.00 | 0.00 | 0.00 | 39 |